TimeEDT,TemperatureF,Dew PointF,Humidity,Sea Level PressureIn,VisibilityMPH,Wind Direction,Wind SpeedMPH,Gust SpeedMPH,PrecipitationIn,Events,Conditions,WindDirDegrees,DateUTC
12:53 AM,66.9,57.0,70,30.08,10.0,SSW,8.1,-,N/A,,Clear,200,2013-04-10 04:53:00
1:53 AM,66.0,57.9,75,30.06,10.0,SSW,9.2,-,N/A,,Clear,200,2013-04-10 05:53:00
2:53 AM,64.0,57.9,80,30.07,10.0,SSW,8.1,-,N/A,,Clear,210,2013-04-10 06:53:00
3:53 AM,63.0,57.9,84,30.07,10.0,SSW,6.9,-,N/A,,Clear,210,2013-04-10 07:53:00
4:53 AM,62.1,59.0,90,30.08,10.0,SW,5.8,-,N/A,,Clear,220,2013-04-10 08:53:00
5:53 AM,60.1,57.9,93,30.08,10.0,SW,5.8,-,N/A,,Clear,220,2013-04-10 09:53:00
6:53 AM,59.0,57.9,96,30.09,9.0,SW,5.8,-,N/A,,Clear,220,2013-04-10 10:53:00
7:53 AM,62.1,60.1,93,30.11,10.0,SW,6.9,-,N/A,,Clear,220,2013-04-10 11:53:00
8:53 AM,68.0,61.0,78,30.12,10.0,SW,10.4,-,N/A,,Clear,230,2013-04-10 12:53:00
9:53 AM,73.0,57.9,59,30.12,10.0,SW,13.8,-,N/A,,Clear,230,2013-04-10 13:53:00
10:53 AM,77.0,59.0,54,30.11,10.0,WSW,12.7,-,N/A,,Clear,240,2013-04-10 14:53:00
11:53 AM,79.0,59.0,50,30.10,10.0,SW,11.5,-,N/A,,Clear,220,2013-04-10 15:53:00
12:53 PM,82.9,57.9,42,30.08,10.0,SW,9.2,-,N/A,,Clear,230,2013-04-10 16:53:00
1:53 PM,84.0,57.9,41,30.07,10.0,WSW,9.2,19.6,N/A,,Clear,240,2013-04-10 17:53:00
2:53 PM,84.9,57.9,40,30.04,10.0,SW,11.5,-,N/A,,Clear,230,2013-04-10 18:53:00
3:53 PM,84.9,57.0,38,30.01,10.0,SW,13.8,20.7,N/A,,Clear,230,2013-04-10 19:53:00
4:53 PM,84.9,57.0,38,29.99,10.0,SW,8.1,20.7,N/A,,Clear,220,2013-04-10 20:53:00
5:53 PM,84.0,57.9,41,29.98,10.0,SW,17.3,-,N/A,,Clear,220,2013-04-10 21:53:00
6:53 PM,82.0,57.9,44,29.97,10.0,SSW,11.5,21.9,N/A,,Clear,200,2013-04-10 22:53:00
7:53 PM,78.1,59.0,52,29.96,10.0,SSW,8.1,-,N/A,,Clear,200,2013-04-10 23:53:00
8:53 PM,75.0,60.1,60,29.97,10.0,South,15.0,-,N/A,,Clear,180,2013-04-11 00:53:00
9:53 PM,72.0,55.9,57,29.99,10.0,South,10.4,19.6,N/A,,Clear,190,2013-04-11 01:53:00
10:53 PM,69.1,55.9,63,29.99,10.0,South,9.2,-,N/A,,Clear,180,2013-04-11 02:53:00
11:53 PM,66.9,57.0,70,29.98,10.0,South,9.2,-,N/A,,Clear,190,2013-04-11 03:53:00